Terminal Aerodrome Forecast
Issued by NWS Grand Rapids, MI

Home | Current Version | Previous Version | Text Only | Print | Product List | Glossary On
Versions: 1 2 3 4 5 6 7 8 9 10 11 12 13 14 15 16 17 18 19 20 21 22 23 24 25 26 27 28 29 30 31 32 33 34 35 36 37 38 39 40 41 42 43 44 45 46 47 48 49 50
000
FTUS43 KGRR 101612 AAC
TAFGRR
TAF AMD
KGRR 101612Z 1016/1112 30011G20KT 4SM -SHSN OVC035
      TEMPO 1016/1018 2SM -SHSN
     FM101800 30012G22KT P6SM -SHSN OVC035
     FM102100 27010G16KT P6SM -SHSN BKN035
     FM110100 27013KT P6SM VCSH BKN035=

USA.gov is the U.S. government's official web portal to all federal, state and local government web resources and services.